Time,TemperatureF,DewpointF,PressureIn,WindDirection,WindDirectionDegrees,WindSpeedMPH,WindSpeedGustMPH,Humidity,HourlyPrecipIn,Conditions,Clouds,dailyrainin,SoftwareType,DateUTC
2013-02-01 00:08:00,30.6,20.0,29.57,West,276,1.0,4.0,65,0.00,,,0.00,weatherlink.com 1.10,2013-02-01 05:08:00,
2013-02-01 00:23:00,30.1,20.0,29.58,West,264,2.0,3.0,67,0.00,,,0.00,weatherlink.com 1.10,2013-02-01 05:23:00,
2013-02-01 00:38:00,29.7,20.0,29.58,West,280,1.0,3.0,68,0.00,,,0.00,weatherlink.com 1.10,2013-02-01 05:38:00,
2013-02-01 00:53:00,29.0,20.0,29.59,South,182,1.0,4.0,69,0.00,,,0.00,weatherlink.com 1.10,2013-02-01 05:53:00,
2013-02-01 01:08:00,28.8,20.0,29.59,WSW,243,1.0,7.0,69,0.00,,,0.00,weatherlink.com 1.10,2013-02-01 06:08:00,
2013-02-01 01:23:00,28.4,20.0,29.60,WSW,240,0.0,2.0,70,0.00,,,0.00,weatherlink.com 1.10,2013-02-01 06:23:00,
2013-02-01 01:38:00,28.4,19.0,29.60,SW,232,0.0,1.0,67,0.00,,,0.00,weatherlink.com 1.10,2013-02-01 06:38:00,
2013-02-01 01:53:00,28.3,19.0,29.61,SW,232,0.0,1.0,67,0.00,,,0.00,weatherlink.com 1.10,2013-02-01 06:53:00,
2013-02-01 02:08:00,28.8,18.0,29.61,South,181,0.0,5.0,64,0.00,,,0.00,weatherlink.com 1.10,2013-02-01 07:08:00,
2013-02-01 02:23:00,28.7,17.0,29.62,SSW,207,1.0,2.0,63,0.00,,,0.00,weatherlink.com 1.10,2013-02-01 07:23:00,
2013-02-01 02:38:00,29.1,17.0,29.62,NNW,332,3.0,7.0,60,0.00,,,0.00,weatherlink.com 1.10,2013-02-01 07:38:00,
2013-02-01 02:53:00,29.2,15.0,29.62,SE,146,4.0,7.0,55,0.00,,,0.00,weatherlink.com 1.10,2013-02-01 07:53:00,
2013-02-01 03:08:00,28.8,13.0,29.62,WSW,246,1.0,3.0,53,0.00,,,0.00,weatherlink.com 1.10,2013-02-01 08:08:00,
2013-02-01 03:24:00,28.4,13.0,29.62,SW,231,1.0,5.0,52,0.00,,,0.00,weatherlink.com 1.10,2013-02-01 08:24:00,
2013-02-01 03:38:00,28.0,13.0,29.63,WSW,256,1.0,4.0,53,0.00,,,0.00,weatherlink.com 1.10,2013-02-01 08:38:00,
2013-02-01 03:53:00,28.0,15.0,29.64,WSW,256,0.0,3.0,59,0.00,,,0.00,weatherlink.com 1.10,2013-02-01 08:53:00,
2013-02-01 04:09:00,27.6,17.0,29.65,SSW,208,0.0,2.0,64,0.00,,,0.00,weatherlink.com 1.10,2013-02-01 09:09:00,
2013-02-01 04:23:00,27.5,17.0,29.65,SW,228,3.0,4.0,65,0.00,,,0.00,weatherlink.com 1.10,2013-02-01 09:23:00,
2013-02-01 04:39:00,27.3,16.0,29.65,SW,224,2.0,4.0,63,0.00,,,0.00,weatherlink.com 1.10,2013-02-01 09:39:00,
2013-02-01 04:54:00,27.0,16.0,29.66,SE,134,2.0,4.0,63,0.00,,,0.00,weatherlink.com 1.10,2013-02-01 09:54:00,
2013-02-01 05:09:00,26.7,15.0,29.66,WNW,283,1.0,4.0,61,0.00,,,0.00,weatherlink.com 1.10,2013-02-01 10:09:00,
2013-02-01 05:24:00,26.4,14.0,29.66,West,264,1.0,5.0,61,0.00,,,0.00,weatherlink.com 1.10,2013-02-01 10:24:00,
2013-02-01 05:39:00,26.3,14.0,29.66,SW,218,1.0,6.0,59,0.00,,,0.00,weatherlink.com 1.10,2013-02-01 10:39:00,
2013-02-01 05:54:00,26.1,14.0,29.67,SW,232,3.0,3.0,60,0.00,,,0.00,weatherlink.com 1.10,2013-02-01 10:54:00,
2013-02-01 06:09:00,25.9,13.0,29.67,WSW,252,1.0,4.0,59,0.00,,,0.00,weatherlink.com 1.10,2013-02-01 11:09:00,
2013-02-01 06:24:00,25.8,13.0,29.68,WSW,240,0.0,2.0,59,0.00,,,0.00,weatherlink.com 1.10,2013-02-01 11:24:00,
2013-02-01 06:39:00,25.5,13.0,29.69,NW,307,0.0,3.0,60,0.00,,,0.00,weatherlink.com 1.10,2013-02-01 11:39:00,
2013-02-01 06:54:00,25.4,13.0,29.70,SSW,212,0.0,2.0,60,0.00,,,0.00,weatherlink.com 1.10,2013-02-01 11:54:00,
2013-02-01 07:09:00,25.4,14.0,29.71,West,279,0.0,3.0,61,0.00,,,0.00,weatherlink.com 1.10,2013-02-01 12:09:00,
2013-02-01 07:24:00,25.9,13.0,29.72,South,169,0.0,2.0,59,0.00,,,0.00,weatherlink.com 1.10,2013-02-01 12:24:00,
2013-02-01 07:39:00,26.3,14.0,29.73,SW,226,3.0,5.0,60,0.00,,,0.00,weatherlink.com 1.10,2013-02-01 12:39:00,
2013-02-01 07:54:00,26.5,15.0,29.74,SW,218,2.0,4.0,61,0.00,,,0.00,weatherlink.com 1.10,2013-02-01 12:54:00,
2013-02-01 08:09:00,26.7,14.0,29.75,WSW,255,1.0,6.0,60,0.00,,,0.00,weatherlink.com 1.10,2013-02-01 13:09:00,
2013-02-01 08:24:00,26.9,15.0,29.76,SSW,212,1.0,5.0,60,0.00,,,0.00,weatherlink.com 1.10,2013-02-01 13:24:00,
2013-02-01 08:39:00,27.8,15.0,29.77,NW,325,3.0,4.0,60,0.00,,,0.00,weatherlink.com 1.10,2013-02-01 13:39:00,
2013-02-01 08:54:00,28.1,16.0,29.77,West,265,4.0,6.0,60,0.00,,,0.00,weatherlink.com 1.10,2013-02-01 13:54:00,
2013-02-01 09:09:00,27.4,15.0,29.78,West,281,0.0,5.0,61,0.00,,,0.00,weatherlink.com 1.10,2013-02-01 14:09:00,
2013-02-01 09:24:00,28.0,16.0,29.78,SW,226,3.0,3.0,61,0.00,,,0.00,weatherlink.com 1.10,2013-02-01 14:24:00,
2013-02-01 09:39:00,28.4,16.0,29.78,WSW,256,1.0,6.0,60,0.00,,,0.00,weatherlink.com 1.10,2013-02-01 14:39:00,
2013-02-01 09:54:00,29.0,17.0,29.77,NW,311,3.0,6.0,60,0.00,,,0.00,weatherlink.com 1.10,2013-02-01 14:54:00,
2013-02-01 10:09:00,29.1,15.0,29.76,SSW,194,1.0,5.0,56,0.00,,,0.00,weatherlink.com 1.10,2013-02-01 15:09:00,
2013-02-01 10:24:00,29.6,15.0,29.76,West,259,1.0,3.0,54,0.00,,,0.00,weatherlink.com 1.10,2013-02-01 15:24:00,
2013-02-01 10:39:00,30.1,10.0,29.77,NNE,18,2.0,6.0,44,0.00,,,0.00,weatherlink.com 1.10,2013-02-01 15:39:00,
2013-02-01 10:54:00,29.6,8.0,29.78,NW,326,2.0,6.0,41,0.00,,,0.00,weatherlink.com 1.10,2013-02-01 15:54:00,
2013-02-01 11:10:00,30.7,10.0,29.77,NNW,344,6.0,6.0,42,0.00,,,0.00,weatherlink.com 1.10,2013-02-01 16:10:00,
2013-02-01 11:24:00,31.7,10.0,29.77,WSW,255,1.0,3.0,40,0.00,,,0.00,weatherlink.com 1.10,2013-02-01 16:24:00,
2013-02-01 11:39:00,32.0,10.0,29.77,West,266,1.0,5.0,40,0.00,,,0.00,weatherlink.com 1.10,2013-02-01 16:39:00,
2013-02-01 11:55:00,32.0,10.0,29.76,NW,304,1.0,7.0,40,0.00,,,0.00,weatherlink.com 1.10,2013-02-01 16:55:00,
2013-02-01 12:09:00,31.9,11.0,29.75,WSW,245,0.0,4.0,42,0.00,,,0.00,weatherlink.com 1.10,2013-02-01 17:09:00,
2013-02-01 12:25:00,32.2,10.0,29.74,NW,307,1.0,7.0,39,0.00,,,0.00,weatherlink.com 1.10,2013-02-01 17:25:00,
2013-02-01 12:39:00,32.2,11.0,29.74,West,271,2.0,3.0,41,0.00,,,0.00,weatherlink.com 1.10,2013-02-01 17:39:00,
2013-02-01 12:54:00,32.3,10.0,29.73,North,350,8.0,8.0,40,0.00,,,0.00,weatherlink.com 1.10,2013-02-01 17:54:00,
2013-02-01 13:10:00,32.4,10.0,29.74,NNE,15,5.0,7.0,39,0.00,,,0.00,weatherlink.com 1.10,2013-02-01 18:10:00,
2013-02-01 13:24:00,31.1,8.0,29.75,West,278,3.0,5.0,38,0.00,,,0.00,weatherlink.com 1.10,2013-02-01 18:24:00,
2013-02-01 13:39:00,32.3,9.0,29.74,West,260,0.0,5.0,38,0.00,,,0.00,weatherlink.com 1.10,2013-02-01 18:39:00,
2013-02-01 13:54:00,31.9,9.0,29.75,NNW,342,1.0,5.0,38,0.00,,,0.00,weatherlink.com 1.10,2013-02-01 18:54:00,
2013-02-01 14:09:00,30.8,9.0,29.75,NNW,329,1.0,4.0,40,0.00,,,0.00,weatherlink.com 1.10,2013-02-01 19:09:00,
2013-02-01 14:25:00,30.7,9.0,29.76,WNW,283,0.0,4.0,40,0.00,,,0.00,weatherlink.com 1.10,2013-02-01 19:25:00,
2013-02-01 14:40:00,30.3,9.0,29.77,North,8,4.0,5.0,40,0.00,,,0.00,weatherlink.com 1.10,2013-02-01 19:40:00,
2013-02-01 14:55:00,30.4,7.0,29.77,NW,318,2.0,4.0,38,0.00,,,0.00,weatherlink.com 1.10,2013-02-01 19:55:00,
2013-02-01 15:14:00,30.1,8.0,29.78,West,260,2.0,6.0,40,0.00,,,0.00,weatherlink.com 1.10,2013-02-01 20:14:00,
2013-02-01 15:25:00,29.5,8.0,29.79,WSW,249,3.0,6.0,40,0.00,,,0.00,weatherlink.com 1.10,2013-02-01 20:25:00,
2013-02-01 15:40:00,29.4,8.0,29.80,WNW,293,0.0,5.0,40,0.00,,,0.00,weatherlink.com 1.10,2013-02-01 20:40:00,
2013-02-01 15:55:00,29.3,9.0,29.80,West,271,1.0,4.0,42,0.00,,,0.00,weatherlink.com 1.10,2013-02-01 20:55:00,
2013-02-01 16:10:00,28.9,8.0,29.81,North,352,2.0,4.0,41,0.00,,,0.00,weatherlink.com 1.10,2013-02-01 21:10:00,
2013-02-01 16:25:00,28.8,8.0,29.82,WSW,256,0.0,3.0,41,0.00,,,0.00,weatherlink.com 1.10,2013-02-01 21:25:00,
2013-02-01 16:40:00,28.5,7.0,29.84,NW,323,3.0,5.0,41,0.00,,,0.00,weatherlink.com 1.10,2013-02-01 21:40:00,
2013-02-01 16:55:00,28.3,7.0,29.85,WNW,293,2.0,5.0,41,0.00,,,0.00,weatherlink.com 1.10,2013-02-01 21:55:00,
2013-02-01 17:10:00,28.2,8.0,29.86,SSW,212,2.0,4.0,42,0.00,,,0.00,weatherlink.com 1.10,2013-02-01 22:10:00,
2013-02-01 17:25:00,28.1,8.0,29.87,WSW,249,1.0,8.0,43,0.00,,,0.00,weatherlink.com 1.10,2013-02-01 22:25:00,
2013-02-01 17:40:00,27.9,7.0,29.89,SW,233,1.0,4.0,42,0.00,,,0.00,weatherlink.com 1.10,2013-02-01 22:40:00,
2013-02-01 17:55:00,27.7,9.0,29.90,WNW,293,0.0,3.0,45,0.00,,,0.00,weatherlink.com 1.10,2013-02-01 22:55:00,
2013-02-01 18:10:00,27.5,9.0,29.91,ENE,73,3.0,5.0,46,0.00,,,0.00,weatherlink.com 1.10,2013-02-01 23:10:00,
2013-02-01 18:25:00,27.3,8.0,29.93,West,271,1.0,5.0,45,0.00,,,0.00,weatherlink.com 1.10,2013-02-01 23:25:00,
2013-02-01 18:40:00,27.1,11.0,29.94,West,276,1.0,4.0,50,0.00,,,0.00,weatherlink.com 1.10,2013-02-01 23:40:00,
2013-02-01 18:55:00,26.7,12.0,29.95,West,271,2.0,4.0,53,0.00,,,0.00,weatherlink.com 1.10,2013-02-01 23:55:00,
2013-02-01 19:11:00,26.5,11.0,29.96,NNW,332,2.0,4.0,52,0.00,,,0.00,weatherlink.com 1.10,2013-02-02 00:11:00,
2013-02-01 19:26:00,26.3,11.0,29.97,NNW,342,1.0,7.0,53,0.00,,,0.00,weatherlink.com 1.10,2013-02-02 00:26:00,
2013-02-01 19:40:00,25.5,11.0,29.98,WNW,298,0.0,5.0,54,0.00,,,0.00,weatherlink.com 1.10,2013-02-02 00:40:00,
2013-02-01 19:55:00,25.1,10.0,29.98,WNW,283,0.0,3.0,53,0.00,,,0.00,weatherlink.com 1.10,2013-02-02 00:55:00,
2013-02-01 20:10:00,24.8,10.0,29.99,SW,233,1.0,4.0,54,0.00,,,0.00,weatherlink.com 1.10,2013-02-02 01:10:00,
2013-02-01 20:26:00,24.1,10.0,30.00,NW,316,0.0,2.0,56,0.00,,,0.00,weatherlink.com 1.10,2013-02-02 01:26:00,
2013-02-01 20:41:00,23.7,10.0,30.01,SW,222,1.0,1.0,57,0.00,,,0.00,weatherlink.com 1.10,2013-02-02 01:41:00,
2013-02-01 20:56:00,23.5,8.0,30.02,NW,312,1.0,3.0,52,0.00,,,0.00,weatherlink.com 1.10,2013-02-02 01:56:00,
2013-02-01 21:11:00,23.3,7.0,30.02,WSW,239,0.0,5.0,50,0.00,,,0.00,weatherlink.com 1.10,2013-02-02 02:11:00,
2013-02-01 21:26:00,23.0,7.0,30.02,West,267,0.0,2.0,51,0.00,,,0.00,weatherlink.com 1.10,2013-02-02 02:26:00,
2013-02-01 21:41:00,22.4,9.0,30.03,NW,318,0.0,2.0,57,0.00,,,0.00,weatherlink.com 1.10,2013-02-02 02:41:00,
2013-02-01 21:56:00,22.3,7.0,30.04,WSW,257,0.0,3.0,53,0.00,,,0.00,weatherlink.com 1.10,2013-02-02 02:56:00,
2013-02-01 22:11:00,22.2,6.0,30.04,NNW,337,1.0,5.0,51,0.00,,,0.00,weatherlink.com 1.10,2013-02-02 03:11:00,
2013-02-01 22:26:00,22.1,6.0,30.05,NW,322,3.0,6.0,51,0.00,,,0.00,weatherlink.com 1.10,2013-02-02 03:26:00,
2013-02-01 22:41:00,21.8,6.0,30.05,North,351,1.0,5.0,50,0.00,,,0.00,weatherlink.com 1.10,2013-02-02 03:41:00,
2013-02-01 22:56:00,21.7,5.0,30.06,West,270,0.0,4.0,49,0.00,,,0.00,weatherlink.com 1.10,2013-02-02 03:56:00,
2013-02-01 23:11:00,21.6,6.0,30.07,NW,318,0.0,3.0,51,0.00,,,0.00,weatherlink.com 1.10,2013-02-02 04:11:00,
2013-02-01 23:26:00,21.3,6.0,30.07,West,260,1.0,1.0,52,0.00,,,0.00,weatherlink.com 1.10,2013-02-02 04:26:00,
2013-02-01 23:41:00,20.8,6.0,30.07,NW,315,1.0,2.0,53,0.00,,,0.00,weatherlink.com 1.10,2013-02-02 04:41:00,
2013-02-01 23:56:00,20.4,7.0,30.07,WNW,297,0.0,2.0,56,0.00,,,0.00,weatherlink.com 1.10,2013-02-02 04:56:00,